Location: *
(50.9167°S, 179.4000°W)
Time: 21:39:29
(UTC+00:00)

Meteor 1-27 - Pass Details

Date: 03 March 2024
Orbit: 836 x 892 km, 81.3° (Epoch: 16 April)

Event Time Altitude Azimuth Distance (km) Brightness Sun altitude
Rises 15:42:50 0° 195° (SSW) 3,473 7.6 -16.6°
Reaches altitude 10° 15:45:16 10° 197° (SSW) 2,538 6.9 -16.3°
Maximum altitude 15:51:00 67° 278° (W) 956 4.2 -15.6°
Drops below altitude 10° 15:56:44 10° 359° (N) 2,544 6.4 -14.8°
Sets 15:59:11 0° 1° (N) 3,482 7.1 -14.5°
